[Iaude] MPEC L71: 2024 LH1 [a=1.82,e=0.51,i=15.7,H=30.7]
    mpec at cfa.harvard.edu 
    mpec at cfa.harvard.edu
       
    Thu Jun  6 12:35:40 EDT 2024
    
    
  
M.P.E.C. 2024-L71                                  Issued 2024 June 6, 16:34 UT
     The Minor Planet Electronic Circulars contain information on unusual
         minor planets, routine data on comets and natural satellites,
         and occasional editorial announcements.  They are published
    on behalf of Division F of the International Astronomical Union by the
          Minor Planet Center, Smithsonian Astrophysical Observatory,
                          Cambridge, MA 02138, U.S.A.
			  
             Prepared using the Tamkin Foundation Computer Network
                              MPC at CFA.HARVARD.EDU
            URL https://www.minorplanetcenter.net/    ISSN 1523-6714
                                    2024 LH1                                    
Observations:
     K24L01H*1C2024 06 06.39304816 22 02.780+20 21 19.44         18.45GVEL071703
     K24L01H 1C2024 06 06.39537316 22 02.327+20 21 47.05         18.54GVEL071703
     K24L01H 1C2024 06 06.39769316 22 01.834+20 22 15.74               VEL071703
     K24L01H 1C2024 06 06.40001016 22 01.438+20 22 43.43         18.28GVEL071703
     K24L01H KC2024 06 06.43145716 22 01.387+20 30 01.48         17.79GVEL071I52
     K24L01H KC2024 06 06.43186116 22 01.459+20 30 07.78         17.80GVEL071I52
     K24L01H KC2024 06 06.43226416 22 01.538+20 30 14.22         17.83GVEL071I52
     K24L01H KC2024 06 06.43266816 22 01.618+20 30 20.77         17.79GVEL071I52
     K24L01H  C2024 06 06.43432316 21 53.657+20 26 10.47         17.6 GVEL071H01
     K24L01H  C2024 06 06.43753116 26 32.945+21 13 44.90         17.68oVEL071T08
     K24L01H  C2024 06 06.43802916 21 55.051+20 27 04.74         17.5 GVEL071H01
     K24L01H  C2024 06 06.44030416 26 34.913+21 15 46.12         17.50oVEL071T08
     K24L01H  C2024 06 06.44411216 21 57.943+20 28 38.38         17.5 GVEL071H01
     K24L01H  C2024 06 06.44726816 21 59.764+20 29 29.26         17.4 GVEL071H01
     K24L01H KC2024 06 06.44863516 22 07.201+20 35 02.11         17.61GVEL071I52
     K24L01H  C2024 06 06.44876116 26 41.494+21 22 22.33         17.45oVEL071T08
     K24L01H KC2024 06 06.44903816 22 07.417+20 35 09.89         17.64GVEL071I52
     K24L01H KC2024 06 06.44944416 22 07.633+20 35 17.70         17.69GVEL071I52
     K24L01H KC2024 06 06.44985016 22 07.849+20 35 25.51         17.51GVEL071I52
     K24L01H  C2024 06 06.45867716 26 50.914+21 31 04.22         17.29oVEL071T08
     K24L01H KB2024 06 06.46148916 27 02.039+21 31 00.21         17.2 GVEL071T03
     K24L01H KB2024 06 06.46578116 27 07.508+21 35 15.21         17.1 GVEL071T03
     K24L01H KB2024 06 06.47012716 27 13.608+21 39 50.78         17.4 GVEL071T03
     K24L01H 9C2024 06 06.49437116 28 03.278+22 12 53.85               VEL071F65
     K24L01H 9C2024 06 06.49714916 28 11.296+22 17 45.68               VEL071F65
     K24L01H HB2024 06 06.57289517 17 00.492+41 36 40.29               VEL071T04
Observer details:
703 Catalina Sky Survey.  Observer T. Beuden.  Measurers T. Beuden, V. F.
    Carvajal, D. Fay, J. B. Fazekas, D. C. Fuls, A. R. Gibbs, A. D. Grauer, H.
    Groeller, J. K. Hogan, R. A. Kowalski, S. M. Larson, G. J. Leonard, D.
    Rankin, R. L. Seaman, F. C. Shelly, K. W. Wierzchos.  0.68-m Schmidt + 10K
    CCD.
F65 Haleakala-Faulkes Telescope North.  Observers T. Santana-Ros, F. Ocana,
    M. Micheli, M. Devogele, L. Conversi.  Measurer M. Micheli.  2.0-m f/10
    reflector + CCD.
H01 Magdalena Ridge Observatory, Socorro.  Observers W. H. Ryan, E. V. Ryan.
    Measurer W. H. Ryan.  2.4-m f/8.9 Ritchey-Chretien + CCD.
I52 Steward Observatory, Mt. Lemmon Station.  Observer D. Rankin.  Measurers
    T. Beuden, V. F. Carvajal, D. Fay, J. B. Fazekas, D. C. Fuls, A. R. Gibbs,
    A. D. Grauer, H. Groeller, J. K. Hogan, R. A. Kowalski, S. M. Larson, G.
    J. Leonard, D. Rankin, R. L. Seaman, F. C. Shelly, K. W. Wierzchos.  1.0-m
    prime focus + CCD.
T03 Haleakala-LCO Clamshell #3.  Observers T. Santana-Ros, F. Ocana, M.
    Micheli, M. Devogele, L. Conversi.  Measurer M. Micheli.  0.35-m f/3
    reflector + CMO.
T04 Haleakala-LCO OGG B #2.  Observers T. Santana-Ros, F. Ocana, M. Micheli,
    M. Devogele, L. Conversi.  Measurer M. Micheli.  0.35-m f/3 reflector +
    CMO.
T08 ATLAS-MLO, Mauna Loa.  Observers L. Denneau, R. Siverd, J. Tonry, H.
    Weiland.  Measurers L. Denneau, N. Erasmus, A. Fitzsimmons, J. Robinson,
    R. Siverd, J. Tonry, H. Weiland.  0.5-m Reflector + CCD.
Orbital elements:
2024 LH1                                                 Earth MOID = 0.0001 AU
Epoch 2024 Mar. 31.0 TT = JDT 2460400.5                 Veres                   
M 317.63529              (2000.0)            P               Q                  
n   0.39984473     Peri.  230.60335     +0.56909191     +0.77939017             
a   1.8247714      Node    76.04878     -0.64671258     +0.62108801             
e   0.5127801      Incl.   15.66694     -0.50783584     +0.08246604             
P   2.46           H   30.79          G   0.15           U   5                  
Residuals in seconds of arc
240606 703  0.3-  0.0     240606 T08  0.3-  0.3-    240606 I52  0.0   0.2-
240606 703  0.1+  0.1-    240606 H01  0.1+  0.1+    240606 T08  0.1-  0.2-
240606 703  0.6-  0.6+    240606 T08  0.2+  0.2-    240606 T03  0.0   0.1+
240606 703  0.4-  0.1-    240606 H01  0.0   0.2+    240606 T03  0.2+  0.0
240606 I52  0.1-  0.0     240606 H01  0.1-  0.1-    240606 T03  0.0   0.1-
240606 I52  0.1-  0.1-    240606 I52  0.1-  0.0     240606 F65  0.5+  0.4+
240606 I52  0.1-  0.2-    240606 T08  0.1-  0.3+    240606 F65  0.2-  0.7-
240606 I52  0.1-  0.1-    240606 I52  0.0   0.0     240606 T04  0.0   0.0
240606 H01  0.0   0.0     240606 I52  0.0   0.1-
Ephemeris:
2024 LH1                 a,e,i = 1.82, 0.51, 16                  q = 0.8891
Date    TT    R. A. (2000) Decl.     Delta      r    Elong.  Phase     V
2024 05 07    16 15 52.8 +16 17 53   0.2615  1.2248   141.6    30.8    29.6
...
2024 05 22    16 17 44.0 +18 29 03   0.1299  1.1159   140.8    35.0    28.0
...
2024 05 30    16 17 54.1 +19 10 12   0.06287 1.0619   139.0    38.8    26.5
...
2024 06 05    16 18 36.6 +19 32 04   0.01315 1.0243   137.1    42.4    23.1
2024 06 06    16 20 15.3 +19 50 18   0.0048801.0183   136.6    43.2    20.9
2024 06 07    05 41 57.0 -31 36 40   0.0033271.0130    55.2   124.6    23.6
...
2024 06 13    05 46 18.7 -31 58 57   0.05063 0.9877    55.4   122.2    29.3
...
2024 06 21    05 46 07.8 -31 21 39   0.1136  0.9554    54.9   119.5    30.8
...
2024 07 06    05 47 38.1 -28 42 54   0.2305  0.9021    54.4   113.6    31.8
M. P. C. Staff               (C) Copyright 2024 MPC           M.P.E.C. 2024-L71
    
    
More information about the Iaude
mailing list